Regional Weather Roundup
Issued by NWS

Home | Current Version | Previous Version | Text Only | Print | Product List | Glossary On
Versions: 1 2 3 4 5 6 7 8 9 10 11 12 13 14 15 16 17 18 19 20 21 22 23 24 25 26 27 28 29 30 31 32 33 34 35 36 37 38 39 40 41 42 43 44 45 46 47 48 49 50
000
ASUS43 KMPX 282110
RWRMN
WEATHER ROUNDUP FOR MINNESOTA
NATIONAL WEATHER SERVICE TWIN CITIES/CHANHASSEN MN
400 PM CDT FRI AUG 28 2015


NOTE: "FAIR" INDICATES FEW OR NO CLOUDS BELOW 12,000 FEET WITH NO
SIGNIFICANT WEATHER AND/OR OBSTRUCTIONS TO VISIBILITY. N/A MEANS
CURRENT SKY AND/OR WEATHER CONDITIONS ARE NOT AVAILABLE.

MNZ060>063-068>070-282200-
   Twin Cities Metro

CITY           SKY/WX    TMP DP  RH WIND       PRES   REMARKS
TWIN CITIES    PTSUNNY   74  61  63 SE17      30.00R
ST PAUL        PTSUNNY   73  63  70 SE16      30.01R
CRYSTAL        PTSUNNY   76  63  64 S10       29.98F
LAKEVILLE      PTSUNNY   70  63  78 SE7       30.01R
EDEN PRAIRIE   CLOUDY    75  62  64 SE16      30.00R
SOUTH ST PAUL  PTSUNNY   74  61  64 S10G17    30.00S
LAKE ELMO      CLOUDY    72  64  78 S10       30.02S
$$
MNZ001>005-007-008-013>017-022>024-027-028-282200-
   Northwest Minnesota

CITY           SKY/WX    TMP DP  RH WIND       PRES   REMARKS
BEMIDJI        PTSUNNY   80  65  60 S13G18    29.88F
HALLOCK        MOSUNNY   84  70  61 SW9       29.79F
ROSEAU         SUNNY     82  70  65 SW10G22   29.82S
WARROAD        MOSUNNY   81  70  69 SW12G20   29.83S
THIEF RVR FALL SUNNY    N/A N/A N/A S17G25    29.84S
CROOKSTON      SUNNY     82  66  57 SW23      29.85S
FOSSTON        SUNNY     81  64  57 S24G30    29.87F
DETROIT LAKES  SUNNY     77  64  65 S15G21    29.94F
MOORHEAD       SUNNY     81  66  61 S15G21    29.89F
PARK RAPIDS    MOSUNNY   81  64  56 SW16      29.92F
MAHNOMEN       FAIR      77  66  68 S20G25    29.89F
$$
MNZ006-009>011-018-025>026-282200-
   North Central Minnesota

CITY           SKY/WX    TMP DP  RH WIND       PRES   REMARKS
BAUDETTE       PTSUNNY   80  65  59 SW9       29.83F
FLAG ISLAND    PTSUNNY   70  66  88 SE9       29.82F THUNDER
INTL FALLS     MOSUNNY   79  67  66 W6        29.86R
WASKISH        PTSUNNY   81  66  61 S9G16     29.86S
BIG FORK       PTSUNNY   79  66  65 S12       29.88F
LONGVILLE      MOSUNNY   79  64  61 S13       29.92F
GRAND RAPIDS     N/A     79  63  57 SW12G21   29.92F
CRANE LAKE     PTSUNNY   75  66  73 SW8       29.89F
ORR            PTSUNNY   79  63  57 S10G20    29.86F
COOK           PTSUNNY   79  66  65 S8G17     29.90S
WALKER         FAIR      78  64  63 SW16G22   29.90F
$$
MNZ012-019>021-037-282200-
   Northeast Minnesota

CITY           SKY/WX    TMP DP  RH WIND       PRES   REMARKS
DULUTH         MOSUNNY   78  64  61 SW16      29.94F
ELY            PTSUNNY   73  64  73 SW9       29.91S
HIBBING        MOSUNNY   79  64  60 VRB7      29.91F
EVELETH        MOSUNNY   77  63  61 SW10G20   29.92F
DULUTH HARBOR  MOSUNNY   81  66  61 SW15      29.93F
TWO HARBORS    PTSUNNY   82  70  65 S9G16     29.91F
SILVER BAY     MOSUNNY   79  66  65 S8        29.90F
GRAND MARAIS     N/A     56  53  90 CALM      29.91F
G MARAIS ARPRT CLOUDY    63  57  82 S6        29.94F
$$
MNZ029>031-032-039>041-046>048-054>057-064-282200-
   West Central Minnesota

CITY           SKY/WX    TMP DP  RH WIND       PRES   REMARKS
FERGUS FALLS   PTSUNNY   79  64  61 S12       29.92F
WHEATON        MOSUNNY   75  64  69 S12       29.95S
MORRIS         SUNNY     79  66  65 S15       29.93F
ALEXANDRIA     MOSUNNY   78  63  59 S14       29.97F
ELBOW LAKE     PTSUNNY   76  66  71 S12       29.94S
WADENA         SUNNY     79  63  57 SW12      29.95S
GLENWOOD       SUNNY     77  64  65 S14       29.97F
APPLETON       SUNNY     79  63  57 S12       29.94F
BENSON         MOSUNNY   77  63  61 SW8       29.95F
ORTONVILLE     MOSUNNY   77  64  65 S7        29.93F
MADISON        SUNNY     75  64  69 S8        29.96F
WILLMAR        FAIR      75  63  64 S9        29.99F
$$
MNZ033>034-036-042>043-049>051-058-059-282200-
   Central Minnesota

CITY           SKY/WX    TMP DP  RH WIND       PRES   REMARKS
ST CLOUD       SUNNY     78  62  57 S12       29.98F
SAUK CENTRE    FAIR      78  63  59 S10       29.97F
PAYNESVILLE    CLOUDY    77  62  59 E10       29.99S
AITKIN         MOSUNNY   81  66  61 S10       29.94F
PINE RIVER     MOSUNNY   79  64  61 S12G18    29.97S
BRAINERD       MOSUNNY   79  62  56 SW16      29.95F
STAPLES        PTSUNNY   79  63  57 SW9       29.95S
LONG PRAIRIE   PTSUNNY   75  63  64 S12G17    29.96F
LITTLE FALLS   MOSUNNY   79  59  50 S10       29.96F
LITCHFIELD     MOSUNNY   75  64  69 S3        30.01R
BUFFALO        MOSUNNY   76  60  57 SE8       30.00S
MAPLE LAKE     MOSUNNY   77  65  66 S7        30.00S
$$
MNZ037-044-045-052-053-282200-
   East Central Minnesota

CITY           SKY/WX    TMP DP  RH WIND       PRES   REMARKS
PRINCETON      MOSUNNY   81  63  54 S9        29.98F
MORA           MOSUNNY   77  59  53 S13       29.99F
CAMBRIDGE      MOSUNNY   81  63  54 S12G17    29.97F
RUSH CITY      MOSUNNY   78  60  53 S10G17    29.99F
MOOSE LAKE     PTSUNNY   79  64  61 S9        29.95S
HINCKLEY       FAIR      79  64  61 S9        29.98F
CLOQUET        MOSUNNY   79  63  57 S13       29.95F
MCGREGOR       SUNNY     79  63  57 S14G21    29.95F
$$
MNZ071>073-080-081-089-090-097-098-282200-
   Southwest Minnesota

CITY           SKY/WX    TMP DP  RH WIND       PRES   REMARKS
MONTEVIDEO     MOSUNNY   81  63  54 S8        29.98F
GRANITE FALLS  CLOUDY    73  63  69 SE10      30.00R
CANBY          PTSUNNY   74  63  66 SE10      29.98F
MARSHALL       CLOUDY    72  57  60 E13       29.99S
REDWOOD FALLS  PTSUNNY   72  62  71 SE9G17    29.98S
OLIVIA         CLOUDY    70  59  68 SE13      29.99S
PIPESTONE      PTSUNNY   70  61  73 E8        29.98R
WINDOM         PTSUNNY   66  57  72 E12G17    29.97R
WORTHINGTON    CLOUDY    64  57  77 E17       29.96R
JACKSON        PTSUNNY   64  59  82 E17       29.96R
TRACY          CLOUDY    70  63  77 E12       29.99R
SLAYTON        PTSUNNY   67  61  82 E6        29.98S
$$
MNZ065>067-074>077-082>085-091>093-282200-
   South Central Minnesota

CITY           SKY/WX    TMP DP  RH WIND       PRES   REMARKS
MANKATO        PTSUNNY   68  57  68 SE17      29.99R
NEW ULM        PTSUNNY   68  59  73 SE14G20   29.99R
ST JAMES       PTSUNNY   70  61  73 E10G17    29.96S
FAIRMONT       CLOUDY    64  55  72 E22       29.93F
GLENCOE        CLOUDY    72  64  76 SE9G17    30.00S
FARIBAULT      MOSUNNY   68  61  77 SE18G24   30.01S
OWATONNA       PTSUNNY   66  59  77 SE17      30.00F
WASECA         PTSUNNY   64  55  72 MISG      30.00F
ALBERT LEA     LGT RAIN  59  57  94 E15G24    29.99F
$$
MNZ078>079-086>088-094>096-282200-
   Southeast Minnesota

CITY           SKY/WX    TMP DP  RH WIND       PRES   REMARKS
ROCHESTER      LGT RAIN  59  57  93 SE13      30.04F FOG
RED WING       PTSUNNY   72  61  68 SE12      30.01S
STANTON        PTSUNNY   70  61  72 SE8       30.00S
DODGE CENTER   LGT RAIN  61  57  88 SE9G17    30.03S
WINONA         RAIN      61  59  94 SE7       30.04F
AUSTIN         LGT RAIN  59  55  88 E17G24    30.00F
PRESTON        RAIN      57  55  95 SE13      30.07F
$$
ABBREVIATIONS USED IN REMARKS
   TC - TEMPERATURES IN CELSIUS
  WCI - WIND CHILL INDEX
   HX - HEAT INDEX
  VSB - VISIBILITY
$$



USA.gov is the U.S. government's official web portal to all federal, state and local government web resources and services.